Time,TemperatureF,DewpointF,PressureIn,WindDirection,WindDirectionDegrees,WindSpeedMPH,WindSpeedGustMPH,Humidity,HourlyPrecipIn,Conditions,Clouds,dailyrainin,SolarRadiationWatts/m^2,SoftwareType,DateUTC
2013-08-18 00:01:00,79.0,61.0,-100.00,South,190,6.0,14.0,55,0.00,,,0.00,429.000000,,2013-08-18 00:01:00,
2013-08-18 00:11:00,78.0,62.0,-100.00,SSE,168,3.0,13.0,58,0.00,,,0.00,265.000000,,2013-08-18 00:11:00,
2013-08-18 00:42:00,78.0,62.0,-100.00,SSE,168,3.0,13.0,58,0.00,,,0.00,265.000000,,2013-08-18 00:42:00,
2013-08-18 00:52:00,78.0,62.0,-100.00,SSE,168,3.0,13.0,58,0.00,,,0.00,265.000000,,2013-08-18 00:52:00,
2013-08-18 01:01:00,78.0,62.0,-100.00,SSE,168,3.0,13.0,58,0.00,,,0.00,265.000000,,2013-08-18 01:01:00,
2013-08-18 01:11:00,72.0,60.0,-100.00,SE,131,3.0,9.0,66,0.00,,,0.00,94.000000,,2013-08-18 01:11:00,
2013-08-18 01:42:00,72.0,60.0,-100.00,SE,131,3.0,9.0,66,0.00,,,0.00,94.000000,,2013-08-18 01:42:00,
2013-08-18 01:52:00,72.0,60.0,-100.00,SE,131,3.0,9.0,66,0.00,,,0.00,94.000000,,2013-08-18 01:52:00,
2013-08-18 02:02:00,72.0,60.0,-100.00,SE,131,3.0,9.0,66,0.00,,,0.00,94.000000,,2013-08-18 02:02:00,
2013-08-18 02:11:00,69.0,58.0,-100.00,SE,128,5.0,8.0,69,0.00,,,0.00,2.000000,,2013-08-18 02:11:00,
2013-08-18 02:42:00,69.0,58.0,-100.00,SE,128,5.0,8.0,69,0.00,,,0.00,2.000000,,2013-08-18 02:42:00,
2013-08-18 02:52:00,69.0,58.0,-100.00,SE,128,5.0,8.0,69,0.00,,,0.00,2.000000,,2013-08-18 02:52:00,
2013-08-18 03:02:00,69.0,58.0,-100.00,SE,128,5.0,8.0,69,0.00,,,0.00,2.000000,,2013-08-18 03:02:00,
2013-08-18 03:11:00,68.0,58.0,-100.00,SE,129,5.0,9.0,71,0.00,,,0.00,0.000000,,2013-08-18 03:11:00,
2013-08-18 03:43:00,68.0,58.0,-100.00,SE,129,5.0,9.0,71,0.00,,,0.00,0.000000,,2013-08-18 03:43:00,
2013-08-18 03:53:00,68.0,58.0,-100.00,SE,129,5.0,9.0,71,0.00,,,0.00,0.000000,,2013-08-18 03:53:00,
2013-08-18 04:02:00,-999.0,-99.9,-100.00,SE,129,5.0,9.0,-999,0.00,,,0.00,0.000000,,2013-08-18 04:02:00,
2013-08-18 04:11:00,67.0,59.0,-100.00,SE,135,5.0,10.0,75,0.00,,,0.00,0.000000,,2013-08-18 04:11:00,
2013-08-18 04:42:00,67.0,59.0,-100.00,SE,135,5.0,10.0,75,0.00,,,0.00,0.000000,,2013-08-18 04:42:00,
2013-08-18 04:53:00,67.0,59.0,-100.00,SE,135,5.0,10.0,75,0.00,,,0.00,0.000000,,2013-08-18 04:53:00,
2013-08-18 05:02:00,67.0,59.0,-100.00,SE,135,5.0,10.0,75,0.00,,,0.00,0.000000,,2013-08-18 05:02:00,
2013-08-18 05:11:00,64.0,58.0,-100.00,SE,136,2.0,9.0,81,0.00,,,0.00,0.000000,,2013-08-18 05:11:00,
2013-08-18 05:43:00,64.0,58.0,-100.00,SE,136,2.0,9.0,81,0.00,,,0.00,0.000000,,2013-08-18 05:43:00,
2013-08-18 05:52:00,64.0,58.0,-100.00,SE,136,2.0,9.0,81,0.00,,,0.00,0.000000,,2013-08-18 05:52:00,
2013-08-18 06:01:00,64.0,58.0,-100.00,SE,136,2.0,9.0,81,0.00,,,0.00,0.000000,,2013-08-18 06:01:00,
2013-08-18 06:11:00,62.0,58.0,-100.00,SE,135,2.0,5.0,87,0.00,,,0.00,0.000000,,2013-08-18 06:11:00,
2013-08-18 06:42:00,62.0,58.0,-100.00,SE,135,2.0,5.0,87,0.00,,,0.00,0.000000,,2013-08-18 06:42:00,
2013-08-18 06:52:00,62.0,58.0,-100.00,SE,135,2.0,5.0,87,0.00,,,0.00,0.000000,,2013-08-18 06:52:00,
2013-08-18 07:01:00,62.0,58.0,-100.00,SE,135,2.0,5.0,87,0.00,,,0.00,0.000000,,2013-08-18 07:01:00,
2013-08-18 07:11:00,63.0,58.0,-100.00,SE,129,5.0,8.0,85,0.00,,,-99.99,0.000000,,2013-08-18 07:11:00,
2013-08-18 07:42:00,63.0,58.0,-100.00,SE,129,5.0,8.0,85,0.00,,,-99.99,0.000000,,2013-08-18 07:42:00,
2013-08-18 07:52:00,63.0,58.0,-100.00,SE,129,5.0,8.0,85,0.00,,,-99.99,0.000000,,2013-08-18 07:52:00,
2013-08-18 08:01:00,63.0,58.0,-100.00,SE,129,5.0,8.0,85,0.00,,,-99.99,0.000000,,2013-08-18 08:01:00,
2013-08-18 08:11:00,61.0,57.0,-100.00,SE,134,3.0,8.0,87,0.00,,,0.00,0.000000,,2013-08-18 08:11:00,
2013-08-18 08:42:00,61.0,57.0,-100.00,SE,134,3.0,8.0,87,0.00,,,0.00,0.000000,,2013-08-18 08:42:00,
2013-08-18 08:52:00,61.0,57.0,-100.00,SE,134,3.0,8.0,87,0.00,,,0.00,0.000000,,2013-08-18 08:52:00,
2013-08-18 09:01:00,61.0,57.0,-100.00,SE,134,3.0,8.0,87,0.00,,,0.00,0.000000,,2013-08-18 09:01:00,
2013-08-18 09:11:00,61.0,57.0,-100.00,SE,145,2.0,7.0,86,0.00,,,0.00,0.000000,,2013-08-18 09:11:00,
2013-08-18 09:43:00,61.0,57.0,-100.00,SE,145,2.0,7.0,86,0.00,,,0.00,0.000000,,2013-08-18 09:43:00,
2013-08-18 09:53:00,61.0,57.0,-100.00,SE,145,2.0,7.0,86,0.00,,,0.00,0.000000,,2013-08-18 09:53:00,
2013-08-18 10:03:00,61.0,57.0,-100.00,SE,145,2.0,7.0,86,0.00,,,0.00,0.000000,,2013-08-18 10:03:00,
2013-08-18 10:11:00,60.0,56.0,-100.00,ESE,103,2.0,6.0,87,0.00,,,0.00,0.000000,,2013-08-18 10:11:00,
2013-08-18 10:43:00,60.0,56.0,-100.00,ESE,103,2.0,6.0,87,0.00,,,0.00,0.000000,,2013-08-18 10:43:00,
2013-08-18 10:52:00,60.0,56.0,-100.00,ESE,103,2.0,6.0,87,0.00,,,0.00,0.000000,,2013-08-18 10:52:00,
2013-08-18 11:02:00,60.0,56.0,-100.00,ESE,103,2.0,6.0,87,0.00,,,0.00,0.000000,,2013-08-18 11:02:00,
2013-08-18 11:11:00,60.0,56.0,-100.00,SE,133,4.0,7.0,87,0.00,,,0.00,0.000000,,2013-08-18 11:11:00,
2013-08-18 11:42:00,60.0,56.0,-100.00,SE,133,4.0,7.0,87,0.00,,,0.00,0.000000,,2013-08-18 11:42:00,
2013-08-18 11:52:00,60.0,56.0,-100.00,SE,133,4.0,7.0,87,0.00,,,0.00,0.000000,,2013-08-18 11:52:00,
2013-08-18 12:01:00,60.0,56.0,-100.00,SE,133,4.0,7.0,87,0.00,,,0.00,0.000000,,2013-08-18 12:01:00,
2013-08-18 12:11:00,61.0,57.0,-100.00,SE,140,3.0,9.0,86,0.00,,,0.00,9.000000,,2013-08-18 12:11:00,
2013-08-18 12:42:00,61.0,57.0,-100.00,SE,140,3.0,9.0,86,0.00,,,0.00,9.000000,,2013-08-18 12:42:00,
2013-08-18 12:52:00,61.0,57.0,-100.00,SE,140,3.0,9.0,86,0.00,,,0.00,9.000000,,2013-08-18 12:52:00,
2013-08-18 13:01:00,61.0,57.0,-100.00,SE,140,3.0,9.0,86,0.00,,,0.00,9.000000,,2013-08-18 13:01:00,
2013-08-18 13:11:00,63.0,58.0,-100.00,SSE,167,3.0,6.0,83,0.00,,,0.00,68.000000,,2013-08-18 13:11:00,
2013-08-18 13:42:00,63.0,58.0,-100.00,SSE,167,3.0,6.0,83,0.00,,,0.00,68.000000,,2013-08-18 13:42:00,
2013-08-18 13:52:00,63.0,58.0,-100.00,SSE,167,3.0,6.0,83,0.00,,,0.00,68.000000,,2013-08-18 13:52:00,
2013-08-18 14:01:00,63.0,58.0,-100.00,SSE,167,3.0,6.0,83,0.00,,,0.00,68.000000,,2013-08-18 14:01:00,
2013-08-18 14:11:00,68.0,61.0,-100.00,SSW,192,3.0,11.0,77,0.00,,,0.00,228.000000,,2013-08-18 14:11:00,
2013-08-18 14:42:00,68.0,61.0,-100.00,SSW,192,3.0,11.0,77,0.00,,,0.00,228.000000,,2013-08-18 14:42:00,
2013-08-18 14:53:00,68.0,61.0,-100.00,SSW,192,3.0,11.0,77,0.00,,,0.00,228.000000,,2013-08-18 14:53:00,
2013-08-18 15:01:00,68.0,61.0,-100.00,SSW,192,3.0,11.0,77,0.00,,,0.00,228.000000,,2013-08-18 15:01:00,
2013-08-18 15:11:00,71.0,61.0,-100.00,SSW,202,4.0,11.0,70,0.00,,,0.00,374.000000,,2013-08-18 15:11:00,
2013-08-18 15:43:00,71.0,61.0,-100.00,SSW,202,4.0,11.0,70,0.00,,,0.00,374.000000,,2013-08-18 15:43:00,
2013-08-18 15:54:00,71.0,61.0,-100.00,SSW,202,4.0,11.0,70,0.00,,,0.00,374.000000,,2013-08-18 15:54:00,
2013-08-18 16:03:00,71.0,61.0,-100.00,SSW,202,4.0,11.0,70,0.00,,,0.00,374.000000,,2013-08-18 16:03:00,
2013-08-18 16:11:00,75.0,62.0,-100.00,South,190,5.0,13.0,65,0.00,,,0.00,534.000000,,2013-08-18 16:11:00,
2013-08-18 16:42:00,75.0,62.0,-100.00,South,190,5.0,13.0,65,0.00,,,0.00,534.000000,,2013-08-18 16:42:00,
2013-08-18 16:52:00,75.0,62.0,-100.00,South,190,5.0,13.0,65,0.00,,,0.00,534.000000,,2013-08-18 16:52:00,
2013-08-18 17:02:00,75.0,62.0,-100.00,South,190,5.0,13.0,65,0.00,,,0.00,534.000000,,2013-08-18 17:02:00,
2013-08-18 17:11:00,77.0,61.0,-100.00,SSW,193,8.0,17.0,57,0.00,,,0.00,644.000000,,2013-08-18 17:11:00,
2013-08-18 17:43:00,77.0,61.0,-100.00,SSW,193,8.0,17.0,57,0.00,,,0.00,644.000000,,2013-08-18 17:43:00,
2013-08-18 17:52:00,77.0,61.0,-100.00,SSW,193,8.0,17.0,57,0.00,,,0.00,644.000000,,2013-08-18 17:52:00,
2013-08-18 18:02:00,77.0,61.0,-100.00,SSW,193,8.0,17.0,57,0.00,,,0.00,644.000000,,2013-08-18 18:02:00,
2013-08-18 18:11:00,79.0,64.0,-100.00,South,189,6.0,16.0,60,0.00,,,0.00,718.000000,,2013-08-18 18:11:00,
2013-08-18 18:42:00,79.0,64.0,-100.00,South,189,6.0,16.0,60,0.00,,,0.00,718.000000,,2013-08-18 18:42:00,
2013-08-18 18:52:00,79.0,64.0,-100.00,South,189,6.0,16.0,60,0.00,,,0.00,718.000000,,2013-08-18 18:52:00,
2013-08-18 19:01:00,79.0,64.0,-100.00,South,189,6.0,16.0,60,0.00,,,0.00,718.000000,,2013-08-18 19:01:00,
2013-08-18 19:11:00,80.0,62.0,-100.00,SSW,195,9.0,16.0,55,0.00,,,0.00,751.000000,,2013-08-18 19:11:00,
2013-08-18 19:42:00,80.0,62.0,-100.00,SSW,195,9.0,16.0,55,0.00,,,0.00,751.000000,,2013-08-18 19:42:00,
2013-08-18 19:52:00,80.0,62.0,-100.00,SSW,195,9.0,16.0,55,0.00,,,0.00,751.000000,,2013-08-18 19:52:00,
2013-08-18 20:02:00,80.0,62.0,-100.00,SSW,195,9.0,16.0,55,0.00,,,0.00,751.000000,,2013-08-18 20:02:00,
2013-08-18 20:11:00,80.0,63.0,-100.00,SSW,194,7.0,16.0,56,0.00,,,0.00,721.000000,,2013-08-18 20:11:00,
2013-08-18 20:42:00,80.0,63.0,-100.00,SSW,194,7.0,16.0,56,0.00,,,0.00,721.000000,,2013-08-18 20:42:00,
2013-08-18 20:52:00,80.0,63.0,-100.00,SSW,194,7.0,16.0,56,0.00,,,0.00,721.000000,,2013-08-18 20:52:00,
2013-08-18 21:01:00,80.0,63.0,-100.00,SSW,194,7.0,16.0,56,0.00,,,0.00,721.000000,,2013-08-18 21:01:00,
2013-08-18 21:11:00,81.0,64.0,-100.00,SSW,193,6.0,16.0,56,0.00,,,0.00,671.000000,,2013-08-18 21:11:00,
2013-08-18 21:42:00,81.0,64.0,-100.00,SSW,193,6.0,16.0,56,0.00,,,0.00,671.000000,,2013-08-18 21:42:00,
2013-08-18 21:53:00,81.0,64.0,-100.00,SSW,193,6.0,16.0,56,0.00,,,0.00,671.000000,,2013-08-18 21:53:00,
2013-08-18 22:03:00,81.0,64.0,-100.00,SSW,193,6.0,16.0,56,0.00,,,0.00,671.000000,,2013-08-18 22:03:00,
2013-08-18 22:11:00,81.0,65.0,-100.00,SE,143,5.0,13.0,58,0.00,,,0.00,545.000000,,2013-08-18 22:11:00,
2013-08-18 22:42:00,81.0,65.0,-100.00,SE,143,5.0,13.0,58,0.00,,,0.00,545.000000,,2013-08-18 22:42:00,
2013-08-18 22:52:00,81.0,65.0,-100.00,SE,143,5.0,13.0,58,0.00,,,0.00,545.000000,,2013-08-18 22:52:00,
2013-08-18 23:02:00,81.0,65.0,-100.00,SE,143,5.0,13.0,58,0.00,,,0.00,545.000000,,2013-08-18 23:02:00,
2013-08-18 23:11:00,80.0,65.0,-100.00,SSW,194,4.0,11.0,60,0.00,,,0.00,374.000000,,2013-08-18 23:11:00,
2013-08-18 23:42:00,80.0,65.0,-100.00,SSW,194,4.0,11.0,60,0.00,,,0.00,374.000000,,2013-08-18 23:42:00,
2013-08-18 23:52:00,80.0,65.0,-100.00,SSW,194,4.0,11.0,60,0.00,,,0.00,374.000000,,2013-08-18 23:52:00,